Temperature
4 4 4 3 3 3 3 5 6 6 6 7 7 7 6 5 4 4 4 3 3 3 3 3 3 3 3 3 3 3 3 3 3 2 2 2 2 2 2 2 2 2 2 2
2 3 3 3 3 3 3 4 5 5 5 6 6 5 5 4 4 3 3 3 3 3 3 3 3 3 3 3 3 3 3 3 2 2 2 2 2 2 2 2 2 2 2 2
4 2 2 4 4 3 3 3 4 5 6 5 5 4 4 4 3 3 3 3 3 3 3 3 3 3 3 3 3 2 2 2 2 2 2 2 1 1 1 1 1 1 1 1
3 2 3 5 3 3 3 3 3 4 4 4 4 3 3 3 3 3 2 2 3 3 3 3 2 2 2 2 2 2 2 2 2 2 2 1 1 1 1 1 1 1 1 1
2 3 4 5 3 2 2 3 3 3 3 3 2 2 3 3 2 2 2 2 2 3 2 2 2 2 2 2 2 1 1 1 1 1 1 1 1 1 1 0 0 0 0 -0
2 3 3 5 3 1 2 3 3 2 2 2 2 4 4 2 2 2 2 2 2 2 2 2 2 2 2 1 1 1 1 1 1 1 1 1 0 0 0 -0 -0 -0 -0 -0
1 2 4 3 1 1 3 4 2 2 2 1 2 3 2 2 2 1 2 2 2 2 2 2 2 2 1 1 1 1 1 0 0 0 0 -0 -0 -0 -0 -1 -1 -1 -1 -1
1 2 3 1 1 2 3 2 1 1 1 1 1 1 1 1 1 1 1 1 1 1 1 1 1 1 1 1 1 0 0 0 -0 -0 -0 -1 -1 -1 -1 -1 -1 -1 -1 -2
2 3 2 1 1 1 1 1 1 1 0 0 0 0 0 0 1 0 1 1 1 1 1 1 1 0 0 0 0 -0 -0 -0 -0 -1 -1 -1 -1 -1 -1 -2 -2 -2 -2 -2
-0 1 1 0 0 0 0 0 0 0 0 0 -0 -0 -0 -0 0 0 0 0 0 0 0 0 0 -0 -0 -0 -1 -1 -1 -1 -1 -1 -1 -1 -1 -2 -2 -2 -2 -2 -2 -3
-0 0 0 0 0 0 0 0 -0 -0 -0 -0 -0 -0 -0 -0 -0 -0 -0 -0 -0 -0 -0 -0 -0 -0 -0 -1 -1 -1 -1 -1 -1 -1 -1 -1 -2 -2 -2 -2 -2 -3 -3 -3
1 1 0 1 0 0 -0 -0 -0 -1 -0 -0 -1 -1 -1 -1 -1 -1 -1 -1 -1 -1 -1 -1 -1 -1 -1 -1 -1 -1 -1 -1 -2 -2 -2 -2 -2 -2 -2 -3 -3 -3 -3 -3
-1 -1 -1 -0 -0 -1 -1 -1 -1 -1 -1 -1 -1 -1 -1 -1 -1 -1 -1 -1 -1 -1 -1 -1 -1 -1 -1 -1 -2 -2 -2 -2 -2 -2 -2 -2 -2 -3 -3 -3 -3 -3 -4 -4
-1 -1 -2 -1 -1 -1 -1 -1 -1 -1 -1 -1 -1 -1 -1 -2 -2 -2 -2 -2 -2 -2 -2 -2 -2 -2 -2 -2 -2 -2 -2 -2 -3 -3 -3 -3 -3 -3 -3 -4 -4 -4 -4 -4
-2 -2 -2 -2 -2 -2 -2 -2 -2 -2 -2 -2 -2 -2 -2 -2 -2 -2 -2 -2 -2 -2 -2 -2 -2 -2 -2 -2 -2 -3 -3 -3 -3 -3 -3 -3 -3 -4 -4 -4 -4 -4 -4 -4
-2 -2 -2 -3 -3 -2 -2 -2 -3 -3 -3 -2 -2 -2 -2 -2 -2 -2 -2 -2 -2 -2 -2 -2 -2 -2 -3 -3 -3 -3 -3 -3 -3 -3 -4 -4 -4 -4 -4 -4 -4 -5 -5 -5
-4 -4 -3 -3 -3 -3 -3 -3 -3 -3 -3 -3 -3 -3 -3 -3 -3 -3 -3 -3 -3 -3 -3 -3 -3 -3 -3 -3 -3 -3 -3 -4 -4 -4 -4 -4 -4 -4 -4 -5 -5 -5 -5 -5
-3 -3 -3 -3 -4 -4 -4 -4 -4 -4 -4 -4 -4 -4 -4 -4 -4 -4 -3 -3 -3 -3 -3 -3 -3 -3 -3 -3 -4 -4 -4 -4 -4 -4 -4 -4 -5 -5 -5 -5 -5 -5 -5 -5
-4 -4 -4 -4 -4 -4 -4 -4 -4 -4 -4 -4 -4 -4 -4 -4 -4 -4 -4 -4 -3 -3 -3 -3 -3 -3 -4 -4 -4 -4 -4 -4 -4 -5 -5 -5 -5 -5 -5 -5 -5 -6 -6 -6
-4 -4 -4 -4 -4 -5 -5 -4 -5 -5 -5 -5 -5 -5 -4 -4 -4 -4 -4 -4 -4 -4 -4 -4 -4 -4 -4 -4 -4 -4 -5 -5 -5 -5 -5 -5 -5 -5 -6 -6 -6 -6 -6 -6
-4 -4 -4 -4 -5 -5 -5 -5 -5 -5 -5 -5 -5 -5 -5 -5 -5 -5 -5 -5 -4 -4 -4 -4 -4 -4 -4 -4 -5 -5 -5 -5 -5 -5 -6 -6 -6 -6 -6 -6 -6 -6 -6 -6
-4 -5 -5 -5 -5 -5 -5 -5 -5 -5 -5 -5 -5 -5 -5 -5 -5 -5 -5 -5 -5 -5 -5 -5 -5 -5 -5 -5 -5 -5 -5 -5 -6 -6 -6 -6 -6 -6 -6 -6 -6 -6 -7 -7
-5 -5 -5 -5 -5 -5 -5 -5 -6 -6 -6 -6 -6 -6 -5 -5 -5 -6 -6 -5 -5 -5 -5 -5 -5 -5 -5 -5 -5 -6 -6 -6 -6 -6 -6 -6 -6 -6 -6 -6 -7 -7 -7 -7
-5 -5 -5 -6 -6 -6 -6 -6 -6 -6 -6 -6 -6 -6 -6 -6 -6 -6 -6 -6 -6 -6 -6 -6 -6 -6 -6 -6 -6 -6 -6 -6 -6 -6 -6 -7 -7 -7 -7 -7 -7 -7 -7 -7
-5 -6 -6 -6 -6 -6 -6 -6 -6 -6 -6 -6 -6 -6 -6 -6 -6 -6 -6 -6 -6 -6 -6 -6 -6 -6 -6 -6 -6 -6 -6 -7 -7 -7 -7 -7 -7 -7 -7 -7 -7 -7 -7 -7
-6 -6 -6 -6 -6 -6 -7 -7 -7 -7 -7 -7 -7 -7 -7 -7 -7 -7 -7 -6 -6 -6 -6 -7 -7 -7 -7 -7 -7 -7 -7 -7 -7 -7 -7 -7 -7 -7 -7 -7 -7 -7 -7 -7
-6 -6 -6 -7 -7 -7 -7 -7 -7 -7 -7 -7 -7 -7 -7 -7 -7 -7 -7 -7 -7 -7 -7 -7 -7 -7 -7 -7 -7 -7 -7 -7 -7 -7 -7 -7 -7 -8 -8 -8 -8 -8 -8 -8
Wind_Speed
8 8 6 8 9 10 11 11 10 12 14 15 12 11 9 7 6 5 5 5 5 5 5 4 4 3 3 3 3 3 4 4 5 4 4 4 4 4 4 4 4 4 3 3
7 8 8 10 12 13 14 13 15 16 17 14 13 10 10 9 7 6 6 6 6 6 5 5 5 4 4 3 3 3 4 4 4 4 4 4 5 4 4 4 3 3 3 3
6 5 6 10 11 12 9 10 11 14 14 10 10 10 9 8 7 7 7 6 6 6 6 6 5 5 4 4 3 4 4 4 3 4 4 4 4 4 4 4 3 4 3 3
4 4 9 5 2 7 10 11 11 12 12 11 11 10 8 8 8 8 7 7 6 5 5 5 4 4 3 3 3 4 4 4 4 4 4 4 4 4 4 4 4 4 4 3
4 6 10 6 3 4 7 9 9 11 12 10 9 8 7 6 6 8 8 7 6 5 5 4 4 3 3 3 3 4 4 4 4 4 4 4 5 5 4 4 4 3 3 3
5 6 7 4 1 1 3 7 5 7 8 8 6 5 5 5 6 6 6 5 4 3 3 3 3 3 4 4 4 5 5 5 4 4 5 5 5 4 4 4 4 3 3 3
9 8 8 4 1 4 5 5 3 5 6 5 5 6 6 6 6 6 5 4 3 2 3 3 3 3 4 4 5 5 4 4 4 5 5 5 5 4 4 4 4 4 4 3
7 8 8 2 4 5 5 4 4 5 5 6 6 7 6 6 6 6 5 4 3 2 3 2 2 3 4 5 4 3 3 4 4 4 4 4 4 4 4 4 4 4 3 3
7 7 4 3 5 5 4 5 5 6 6 6 7 7 6 6 6 6 5 4 3 3 3 3 3 3 4 4 3 3 3 4 4 4 4 4 5 5 4 4 4 4 3 3
6 8 8 7 8 8 7 7 7 7 7 6 7 7 7 6 6 6 5 4 3 3 4 4 4 4 4 3 3 3 4 4 4 4 4 4 4 4 4 5 5 4 4 4
9 9 8 8 8 9 8 7 7 7 7 7 7 7 7 7 6 6 5 4 4 4 5 5 4 4 3 3 3 4 4 4 4 4 4 4 4 4 5 5 5 5 4 4
8 7 7 8 7 7 7 8 8 8 8 7 7 7 7 6 6 5 5 4 4 5 5 5 4 4 4 3 4 4 4 4 4 4 3 3 3 3 3 5 5 6 5 5
9 8 8 10 8 7 7 8 8 8 8 7 6 6 6 6 6 5 5 5 5 5 5 5 5 5 4 3 3 4 4 4 3 4 4 4 4 3 3 3 4 5 6 6
9 7 8 8 8 8 8 8 7 6 6 6 6 5 5 6 5 6 6 6 5 5 5 5 5 5 4 3 3 4 4 4 4 4 4 4 4 4 4 3 3 3 4 6
8 8 8 8 8 7 7 6 5 6 6 6 5 5 5 6 6 6 6 5 4 5 5 5 5 5 3 3 3 4 3 3 3 3 3 4 4 4 3 4 3 3 2 3
7 6 7 8 8 8 7 6 6 7 6 6 6 6 6 6 6 6 5 4 4 6 5 5 5 4 3 3 3 3 3 3 3 3 3 3 3 3 3 3 3 3 3 2
4 5 6 7 8 8 8 8 7 8 7 7 7 6 6 5 5 6 5 5 5 5 5 4 4 3 3 3 3 3 2 3 4 3 3 3 3 4 4 3 3 3 3 3
7 7 7 7 8 8 9 8 7 7 7 7 6 5 5 5 6 6 5 4 4 4 4 3 3 2 2 2 2 2 2 2 2 2 2 2 3 3 3 3 3 3 3 3
6 6 7 7 7 7 8 8 7 7 6 5 5 6 6 6 5 5 4 3 3 4 3 2 2 2 2 2 2 2 2 2 2 2 2 3 2 2 2 2 2 3 2 2
5 5 6 7 6 6 6 6 6 6 5 5 5 5 5 5 4 3 3 4 3 3 2 2 1 1 2 2 2 2 3 3 3 2 2 2 2 2 2 2 2 2 2 2
5 6 6 6 6 6 6 6 5 5 5 4 4 5 5 4 3 3 3 3 2 1 1 2 1 1 2 2 3 2 3 3 3 2 2 2 2 2 1 1 2 2 2 2
5 5 6 6 6 6 5 4 4 5 4 4 4 3 3 3 3 2 3 3 2 1 1 1 1 2 2 3 2 3 3 3 2 2 2 2 2 1 1 1 1 1 1 2
5 5 5 5 5 5 5 4 3 4 4 3 3 3 3 3 2 2 2 1 1 1 1 1 1 3 3 2 2 2 3 2 2 2 2 2 1 1 1 1 1 1 1 1
4 4 4 4 4 3 4 4 3 2 3 3 2 2 2 1 1 1 1 1 1 1 1 2 3 3 3 2 2 2 2 2 2 1 1 1 1 1 1 1 1 1 1 1
4 3 3 3 3 3 3 3 3 2 2 1 1 1 1 1 1 1 1 1 2 2 2 2 4 4 3 2 2 2 2 2 2 2 1 1 1 0 0 0 1 1 1 1
3 3 3 3 3 3 2 2 2 2 1 1 1 1 1 1 1 1 1 2 3 3 2 2 2 3 2 2 2 2 2 2 2 1 1 1 1 0 0 0 1 1 1 1
2 2 2 2 2 2 2 1 1 1 1 1 1 1 1 2 2 2 3 3 3 3 2 2 2 2 2 2 2 2 2 2 2 1 1 1 1 0 0 1 1 1 1 1
Wind_Direction
260 267 262 256 248 232 230 238 246 261 265 274 283 289 293 289 279 275 272 261 251 247 247 244 243 242 238 232 226 213 205 208 213 212 208 205 207 211 211 212 218 220 214 213
262 260 261 266 254 241 241 245 250 264 271 277 284 288 287 283 278 275 275 270 264 257 253 248 244 240 234 228 222 212 211 216 211 207 205 206 206 204 201 203 209 211 208 208
261 269 271 261 240 225 231 233 238 253 266 284 288 286 285 286 276 272 272 272 266 260 253 248 245 239 233 228 216 211 217 220 213 206 205 206 202 201 201 203 207 211 215 210
262 257 246 261 223 223 232 246 243 256 271 278 281 289 286 281 275 274 277 274 270 265 258 252 248 238 228 221 212 212 217 219 216 209 208 206 206 209 209 206 207 211 215 217
234 252 267 268 244 224 228 256 249 254 266 281 295 292 284 291 282 278 280 278 272 264 256 249 242 231 216 217 217 219 221 221 218 211 208 207 209 212 210 204 207 210 213 214
231 245 252 272 209 217 222 259 256 247 263 280 290 279 295 327 315 300 294 289 284 278 264 243 236 216 211 223 222 228 229 227 221 215 211 212 213 214 212 206 209 209 217 223
233 245 261 279 214 171 219 275 295 260 259 257 256 275 306 319 316 310 303 297 291 276 258 244 230 212 220 231 234 238 235 228 223 219 217 214 211 211 207 204 204 209 219 230
218 235 252 180 163 207 264 317 299 287 278 269 281 291 298 308 312 315 313 306 293 276 273 267 238 221 231 241 244 242 231 225 224 222 217 212 205 207 206 202 203 211 219 231
219 237 287 204 229 270 289 284 289 294 292 286 285 285 293 299 304 304 301 298 287 270 275 278 256 233 239 248 239 229 225 226 225 221 217 211 207 205 205 205 206 212 217 226
255 263 274 269 271 281 281 279 286 286 284 276 275 283 289 292 296 297 293 288 284 276 275 280 274 260 252 255 238 222 225 227 221 216 215 211 209 208 209 209 210 213 218 223
258 273 283 272 268 278 282 285 286 284 276 270 269 277 281 284 286 288 286 285 278 269 269 275 279 272 267 254 233 226 226 226 223 220 216 213 215 215 217 220 217 216 221 224
253 261 261 275 288 286 279 283 283 283 281 274 263 268 275 278 281 281 281 281 279 277 274 276 275 271 265 247 230 220 223 225 223 218 214 212 213 225 226 229 225 229 235 235
263 277 271 277 283 283 282 288 287 277 272 274 272 266 270 276 280 279 276 274 271 273 274 273 273 270 265 251 234 224 221 223 222 217 214 212 211 215 225 228 224 227 229 231
266 271 272 271 277 288 287 289 287 282 276 270 269 268 265 268 272 273 273 273 273 274 272 270 267 266 261 243 232 227 224 220 219 217 214 213 212 213 214 214 220 235 232 232
264 256 259 276 285 289 289 289 287 285 285 282 274 267 265 264 269 275 278 279 276 272 270 267 263 264 255 233 226 224 223 216 213 213 213 212 209 208 208 212 220 226 228 230
278 270 264 269 277 285 289 287 282 280 281 279 277 272 270 269 273 277 276 269 264 266 268 264 259 258 243 227 223 224 222 215 211 207 205 204 203 203 205 209 213 215 222 228
265 275 277 281 283 285 283 278 273 271 273 271 271 275 276 276 276 276 276 272 267 266 267 261 260 258 240 223 217 216 208 198 193 199 200 199 199 202 205 206 208 216 224 225
253 263 270 277 281 284 285 284 278 272 270 271 272 268 265 264 268 275 280 282 281 280 275 266 255 246 232 217 208 199 187 182 184 189 188 185 185 188 192 198 205 214 224 227
270 272 277 277 275 274 277 281 282 278 275 269 264 265 266 264 266 271 272 265 262 271 276 267 247 230 221 207 186 171 166 164 163 167 171 173 175 180 185 194 203 213 218 221
285 283 282 284 283 276 277 281 282 278 274 269 267 268 270 270 266 262 256 254 256 265 262 246 226 212 201 186 168 160 158 157 155 153 156 165 173 179 185 193 204 212 219 224
291 291 291 292 292 287 280 277 271 271 274 267 260 261 265 269 261 244 241 261 276 267 237 204 198 196 185 163 156 152 153 153 152 154 157 161 161 165 176 189 203 215 224 233
293 291 291 292 294 295 294 286 273 269 272 271 264 256 254 257 252 247 243 247 262 244 207 181 185 170 151 144 146 146 146 148 150 151 156 158 158 163 179 197 212 226 237 247
292 290 290 291 292 296 300 295 273 265 265 263 255 249 246 243 233 229 252 243 219 188 155 162 151 137 132 128 133 136 138 140 144 151 157 158 162 175 194 215 233 243 251 256
297 298 298 299 300 301 305 311 300 283 274 268 259 244 233 231 245 239 225 206 187 156 150 153 141 127 119 118 124 124 126 128 131 136 137 138 146 162 188 214 242 263 263 265
298 298 299 303 305 302 304 314 325 329 327 321 321 305 248 226 217 201 167 162 145 125 126 131 121 109 102 110 113 114 114 117 119 120 117 120 125 146 191 236 262 273 277 276
304 301 297 293 290 293 298 302 306 315 325 338 351 6 28 70 119 126 115 107 104 100 98 98 98 94 92 94 96 100 102 105 103 98 100 99 94 79 13 312 305 305 306 306
313 312 310 313 315 311 301 291 286 296 299 303 346 13 42 67 83 90 95 97 94 88 86 83 84 84 85 87 89 87 84 82 82 84 82 72 52 12 325 296 296 303 309 306
Height
1486 1485 1486 1485 1484 1485 1483 1477 1472 1464 1463 1458 1458 1458 1459 1458 1458 1457 1457 1456 1456 1456 1456 1455 1455 1455 1455 1455 1456 1456 1456 1457 1457 1458 1459 1460 1460 1461 1462 1463 1463 1464 1464 1464
1487 1484 1484 1482 1478 1478 1477 1474 1470 1466 1461 1457 1457 1457 1457 1456 1455 1454 1453 1453 1453 1453 1452 1452 1452 1452 1452 1453 1453 1453 1453 1454 1454 1455 1456 1456 1457 1458 1459 1459 1460 1460 1460 1461
1478 1483 1482 1471 1468 1470 1470 1468 1466 1461 1456 1456 1456 1455 1454 1453 1453 1451 1450 1450 1449 1449 1449 1449 1449 1450 1449 1450 1450 1450 1450 1451 1451 1452 1452 1453 1454 1455 1455 1456 1456 1456 1457 1457
1480 1481 1475 1459 1464 1464 1464 1462 1462 1459 1456 1455 1454 1452 1452 1451 1450 1448 1448 1447 1446 1446 1446 1446 1446 1446 1447 1447 1447 1447 1448 1448 1449 1449 1449 1450 1450 1451 1452 1452 1453 1453 1453 1453
1479 1472 1460 1458 1461 1462 1462 1457 1456 1455 1453 1452 1451 1450 1448 1447 1447 1446 1445 1444 1444 1443 1443 1443 1443 1444 1444 1444 1444 1444 1445 1445 1446 1446 1446 1446 1447 1447 1448 1449 1449 1449 1449 1449
1477 1470 1460 1452 1459 1460 1461 1454 1451 1451 1451 1450 1450 1447 1445 1445 1444 1442 1442 1441 1440 1440 1440 1440 1441 1441 1441 1440 1441 1441 1442 1442 1442 1442 1443 1443 1443 1444 1445 1445 1445 1446 1446 1446
1473 1467 1455 1456 1458 1459 1457 1449 1449 1449 1448 1448 1448 1447 1445 1443 1442 1440 1439 1438 1437 1437 1437 1437 1437 1438 1437 1437 1438 1438 1439 1439 1439 1439 1439 1440 1440 1441 1441 1442 1442 1442 1442 1442
1469 1465 1456 1455 1456 1455 1449 1449 1448 1447 1446 1446 1445 1443 1442 1441 1439 1438 1436 1435 1435 1434 1434 1434 1434 1434 1434 1434 1434 1435 1435 1435 1435 1435 1436 1436 1437 1437 1438 1438 1438 1438 1439 1439
1459 1454 1451 1452 1451 1450 1449 1447 1445 1445 1444 1443 1442 1441 1440 1438 1437 1436 1435 1434 1433 1432 1431 1431 1431 1431 1431 1431 1431 1431 1431 1431 1432 1432 1432 1433 1433 1434 1434 1434 1434 1435 1435 1435
1456 1450 1450 1449 1448 1447 1446 1445 1443 1442 1441 1440 1439 1438 1437 1436 1434 1433 1432 1431 1430 1429 1428 1428 1428 1427 1427 1427 1427 1427 1427 1427 1428 1428 1428 1429 1429 1430 1430 1430 1430 1431 1431 1432
1452 1448 1447 1444 1444 1443 1443 1441 1440 1439 1438 1437 1436 1435 1434 1433 1431 1430 1429 1428 1427 1426 1425 1424 1424 1423 1423 1423 1423 1423 1423 1423 1424 1424 1425 1425 1426 1426 1426 1427 1427 1428 1428 1429
1444 1444 1444 1441 1441 1440 1439 1437 1436 1435 1434 1433 1433 1431 1430 1429 1428 1427 1426 1425 1424 1423 1422 1421 1420 1419 1419 1419 1419 1419 1419 1419 1420 1420 1421 1421 1422 1422 1422 1423 1424 1424 1425 1426
1442 1441 1440 1438 1438 1437 1435 1434 1432 1431 1430 1429 1428 1428 1426 1425 1424 1423 1422 1421 1420 1419 1418 1417 1416 1416 1415 1415 1415 1415 1415 1415 1416 1416 1417 1417 1418 1418 1419 1420 1420 1421 1421 1422
1438 1437 1436 1434 1434 1433 1431 1430 1428 1427 1426 1425 1424 1423 1422 1421 1420 1419 1418 1417 1416 1415 1414 1413 1412 1412 1412 1411 1411 1411 1411 1412 1412 1412 1413 1414 1414 1415 1415 1416 1416 1416 1418 1418
1433 1433 1432 1431 1430 1428 1427 1426 1424 1422 1421 1421 1420 1419 1418 1417 1416 1415 1414 1413 1412 1411 1410 1409 1408 1408 1408 1408 1408 1408 1408 1408 1408 1409 1409 1410 1411 1411 1412 1413 1413 1414 1414 1415
1429 1429 1428 1427 1426 1424 1423 1421 1420 1418 1417 1416 1415 1415 1414 1413 1412 1410 1410 1409 1408 1407 1406 1405 1405 1405 1404 1404 1404 1404 1404 1405 1405 1405 1406 1406 1407 1408 1409 1409 1410 1410 1411 1411
1426 1424 1423 1422 1421 1420 1418 1417 1415 1414 1413 1412 1411 1410 1409 1408 1407 1406 1405 1405 1404 1403 1403 1402 1401 1401 1401 1401 1401 1401 1401 1401 1402 1402 1403 1403 1404 1405 1405 1406 1407 1407 1408 1408
1422 1421 1420 1419 1417 1415 1413 1412 1411 1409 1408 1407 1407 1406 1405 1404 1403 1402 1401 1401 1400 1399 1399 1398 1398 1398 1398 1398 1398 1398 1398 1399 1399 1400 1400 1401 1401 1402 1403 1403 1404 1404 1404 1405
1417 1417 1415 1414 1413 1411 1409 1407 1406 1405 1404 1403 1402 1401 1400 1400 1399 1398 1397 1397 1396 1396 1395 1395 1395 1395 1395 1395 1395 1396 1396 1396 1397 1397 1398 1399 1399 1400 1400 1401 1401 1402 1402 1402
1413 1412 1411 1409 1408 1406 1404 1403 1402 1401 1400 1398 1397 1397 1396 1396 1395 1395 1394 1393 1393 1393 1393 1393 1393 1393 1393 1393 1393 1394 1394 1394 1395 1396 1396 1397 1397 1398 1398 1399 1399 1399 1399 1399
1409 1408 1407 1405 1403 1402 1400 1399 1397 1396 1395 1394 1394 1393 1392 1392 1392 1391 1391 1390 1391 1390 1390 1391 1391 1391 1391 1391 1392 1392 1392 1393 1394 1394 1395 1395 1396 1396 1397 1397 1397 1397 1397 1397
1406 1404 1403 1401 1399 1398 1396 1395 1393 1392 1391 1390 1390 1389 1389 1388 1388 1388 1388 1388 1388 1388 1388 1389 1389 1390 1390 1390 1391 1391 1391 1392 1392 1393 1394 1394 1394 1395 1395 1395 1395 1395 1395 1395
1403 1401 1399 1398 1396 1394 1393 1391 1390 1389 1388 1387 1386 1386 1386 1385 1385 1385 1386 1386 1386 1386 1387 1387 1388 1389 1389 1389 1390 1390 1391 1391 1391 1392 1393 1393 1393 1393 1393 1393 1393 1393 1393 1393
1400 1398 1397 1395 1393 1391 1389 1388 1387 1386 1385 1384 1384 1384 1384 1383 1383 1384 1384 1384 1385 1385 1386 1386 1387 1388 1388 1389 1389 1389 1390 1390 1391 1391 1391 1392 1392 1392 1392 1392 1392 1391 1391 1391
1398 1396 1394 1392 1391 1389 1387 1386 1384 1383 1383 1382 1382 1382 1382 1382 1382 1382 1383 1383 1384 1384 1385 1386 1386 1387 1388 1388 1388 1389 1389 1389 1390 1390 1390 1391 1391 1391 1390 1390 1390 1390 1389 1388
1395 1394 1392 1391 1389 1388 1386 1384 1383 1382 1381 1380 1380 1380 1381 1381 1381 1381 1382 1382 1383 1384 1384 1385 1386 1387 1387 1388 1388 1388 1388 1389 1389 1389 1389 1389 1389 1389 1389 1389 1388 1388 1387 1387
1393 1392 1390 1389 1387 1386 1385 1383 1382 1381 1380 1380 1379 1379 1380 1380 1380 1381 1381 1382 1382 1383 1384 1385 1386 1386 1387 1387 1387 1387 1388 1388 1388 1388 1388 1388 1388 1388 1388 1387 1387 1386 1386 1385